Location: *
(58.4167°N, 22.5000°E)
Time: 19:42:05
(UTC+00:00)

Cosmos 1833 Rocket - Pass Details

Date: 22 September 2019
Orbit: 834 x 838 km, 71.0° (Epoch: 16 October)

Event Time Altitude Azimuth Distance (km) Brightness Sun altitude
Rises 22:01:37 0° 322° (NW) 3,396 6.6 -31.3°
Reaches altitude 10° 22:04:04 10° 321° (NW) 2,458 5.7 -31.3°
Enters shadow 22:08:14 51° 310° (NW) 1,049 3.3 -31.4°
